User: anonymous   Login
Location: Unspecified
(0.0000°N, 0.0000°E)
Time: 00:36:17
(UTC+00:00)
Language:

Tiangong 2 - Orbit

View from above orbital plane
View from above orbital plane
View from above satellite
View from above satellite

Ground track
Ground track

The orbit data is extracted from the following two-line orbital elements,

1 41765U 16057A   17116.86380522 +.00005978 +00000-0 +73592-4 0  9991
2 41765 042.7834 300.7392 0006333 305.7515 150.8328 15.61005789034969
Epoch (UTC): 26 April 2017 20:43:52
Eccentricity: 0.0006333
inclination: 42.7834°
perigee height: 380 km
apogee height: 389 km
right ascension of ascending node: 300.7392°
argument of perigee: 305.7515°
revolutions per day: 15.61005789
mean anomaly at epoch: 150.8328°
orbit number at epoch: 3496

The dashed part of the orbit path shows where the satellite is in the earth's shadow,  

DLR